This demonstration page uses our WeatherBlox Daily Observations layout. Learn more.

36.17497, -115.13722

Hourly Observations for March 14, 2018

Temp ( °F °C ) Dew Point ( °F °C ) Humidity (%) Winds ( mph kmh ) Pressure ( in mb ) Visibility ( mi km ) Precip ( " mm )
12:53 am 00:53 Mostly Cloudy 67 19.4 48 8.9 51 51 SSE 6 9 29.88 1012 10 16.0934 0 0
1:53 am 01:53 Mostly Clear 65 18.3 49 9.4 56 56 E 6 9 29.87 1012 10 16.0934 0 0
2:53 am 02:53 Clear 65 18.3 49 9.4 56 56 SE 6 9 29.85 1011 10 16.0934 0 0
3:53 am 03:53 Clear 65 18.3 45 7.2 49 49 Calm 29.84 1011 10 16.0934 0 0
4:53 am 04:53 Clear 63 17.2 44 6.7 50 50 S 8 13 29.85 1011 10 16.0934 0 0
5:53 am 05:53 Clear 62 16.7 43 6.1 50 50 S 10 17 29.84 1010 10 16.0934 0 0
6:53 am 06:53 Sunny 60 15.6 43 6.1 53 53 SSE 10 17 29.84 1011 10 16.0934 0 0
7:53 am 07:53 Sunny 60 15.6 41 5 50 50 S 6 9 29.84 1011 10 16.0934 0 0
8:53 am 08:53 Sunny 63 17.2 42 5.6 47 47 S 17 28 29.83 1010 10 16.0934 0 0
9:53 am 09:53 Sunny 67 19.4 41 5 39 39 S 18 30 29.83 1010 10 16.0934 0 0
10:53 am 10:53 Sunny 69 20.6 39 3.9 33 33 S 20 31 29.81 1010 10 16.0934 0 0
11:53 am 11:53 Sunny 69 20.6 39 3.9 33 33 S 25 41 29.77 1008 10 16.0934 0 0
12:53 pm 12:53 Mostly Sunny 71 21.7 35 1.7 27 27 WSW 17 28 29.77 1008 10 16.0934 0 0
1:53 pm 13:53 Sunny 71 21.7 36 2.2 28 28 SW 23 37 29.75 1007 10 16.0934 0 0
2:53 pm 14:53 Sunny 70 21.1 34 1.1 27 27 SW 18 30 29.74 1007 10 16.0934 0 0
3:53 pm 15:53 Sunny 70 21.1 31 -0.6 23 23 SW 26 43 29.73 1007 10 16.0934 0 0
4:53 pm 16:53 Sunny 68 20 31 -0.6 25 25 SSW 20 31 29.74 1007 10 16.0934 0 0
5:53 pm 17:53 Sunny 66 18.9 26 -3.3 22 22 W 15 24 29.76 1008 10 16.0934 0 0
6:53 pm 18:53 Mostly Clear 63 17.2 26 -3.3 25 25 WSW 15 24 29.77 1008 10 16.0934 0 0
7:53 pm 19:53 Clear 61 16.1 27 -2.8 27 27 WSW 9 15 29.79 1009 10 16.0934 0 0
8:53 pm 20:53 Mostly Clear 60 15.6 30 -1.1 32 32 SW 8 13 29.79 1009 10 16.0934 0 0
9:53 pm 21:53 Clear 58 14.4 30 -1.1 35 35 WSW 6 9 29.8 1009 10 16.0934 0 0
10:53 pm 22:53 Clear 57 13.9 29 -1.7 34 34 WSW 23 37 29.77 1008 10 16.0934 0 0
11:53 pm 23:53 Clear 56 13.3 32 0 40 40 SW 21 33 29.79 1009 10 16.0934 0 0

Powered by AerisWeather